Location: Gebenbach
(49.5378°N, 11.8735°E)
Time: 02:38:44
(UTC+00:00)

Cosmos 1331 Rocket - Pass Details

Date: 29 October 2020
Orbit: 750 x 778 km, 74.0° (Epoch: 24 November)

Event Time Altitude Azimuth Distance (km) Brightness Sun altitude
Rises 16:23:26 0° 195° (SSW) 3,189 7.7 -5.2°
Reaches altitude 10° 16:25:47 10° 194° (SSW) 2,267 6.9 -5.6°
Maximum altitude 16:30:54 73° 110° (ESE) 788 4.0 -6.4°
Drops below altitude 10° 16:36:03 10° 27° (NNE) 2,282 6.1 -7.2°
Sets 16:38:25 0° 25° (NNE) 3,213 6.9 -7.6°
